Regional Weather Roundup
Issued by NWS

Home | Current Version | Previous Version | Graphics & Text | Print | Product List | Glossary On
Versions: 1 2 3 4 5 6 7 8 9 10 11 12 13 14 15 16 17 18 19 20 21 22 23 24 25 26 27 28
000
ASUS45 KCYS 220410
RWRWY

WYOMING REGIONAL WEATHER ROUNDUP
NATIONAL WEATHER SERVICE CHEYENNE WY
1000 PM MDT MON APR 21 2014

NOTE:  "FAIR" INDICATES FEW OR NO CLOUDS BELOW 12,000 FEET
WITH NO SIGNIFICANT WEATHER AND/OR OBSTRUCTIONS TO VISIBILITY.

WYZ001-220500-
YELLOWSTONE NATIONAL PARK

CITY           SKY/WX    TMP DP  RH WIND       PRES   REMARKS
LK YELLOWSTONE   N/A     33  26  75 NW3       30.14F
W YELLOWSTONE  NOT AVBL

$$
WYZ002>013-054>058-071-098>099-220500-
NORTHERN WYOMING

CITY           SKY/WX    TMP DP  RH WIND       PRES   REMARKS
JACKSON        CLOUDY    43  30  61 CALM      30.09R
CODY           PTCLDY    52  27  37 S3        30.03F
GREYBULL       MOCLDY    56  28  34 E6        29.98S
WORLAND        MOCLDY    54  31  41 SE13      29.98F
SHERIDAN         N/A     43  30  61 NE6         N/A
BUFFALO        MOCLDY    50  30  46 W9        30.07F
GILLETTE       CLEAR     46  33  60 S13       30.07F
HULETT         FAIR      50  30  46 SE9       30.09
NEWCASTLE      FAIR      54  28  37 SE13      30.11

$$
WYZ014>020-022>026-101>103-220500-
CENTRAL WYOMING

CITY           SKY/WX    TMP DP  RH WIND       PRES   REMARKS
BIG PINEY      MOCLDY    50  21  32 N7        30.12S
PINEDALE       MOCLDY    45  27  49 CALM      30.14S
DUBOIS         CLOUDY    43  16  33 NW5       30.12S
LANDER         CLOUDY    53  25  33 SE3       30.03S
RIVERTON       PTCLDY    55  16  21 E7        30.05S
CASPER         CLEAR     51  33  50 E10       30.06F
DOUGLAS        CLEAR     49  35  58 S5        30.09S

$$
WYZ021-027>030-104>119-220500-
SOUTHERN WYOMING

CITY           SKY/WX    TMP DP  RH WIND       PRES   REMARKS
EVANSTON         N/A     53  26  35 SE8       30.11S
KEMMERER       MOCLDY    52  25  35 CALM      30.12S
FORT BRIDGER   FAIR      52  22  31 S10       30.14S
ROCK SPRINGS   CLOUDY    55  21  26 S7        30.12F
DIXON          FAIR      47  29  49 NE9       30.17S
RAWLINS        MOCLDY    41  11  29 CALM      30.14S
SARATOGA       FAIR      43  23  45 SE8       30.17S
LARAMIE        PTCLDY    45  31  58 SE15      30.18F
CHEYENNE       CLEAR     52  32  46 S13       30.17F
TORRINGTON     PTCLDY    53  32  44 SE13      30.09S
PINE BLUFFS    FAIR      52  32  46 SE14      30.16S

$$



USA.gov is the U.S. government's official web portal to all federal, state and local government web resources and services.